Soldotna, AK

2:36 AM AKST on February 27, 2017 (GMT -0900)
Soldotna

Weather History for PASX - October, 2011

Change the Weather History Date:

Friday, October 21, 2011

  Actual Average Record
Temperature  
Mean Temperature 40 °F -  
Max Temperature 44 °F 38 °F 56 °F (1957)
Min Temperature 37 °F 26 °F 3 °F (1996)
Degree Days  
Heating Degree Days 24    
Moisture  
Dew Point 28 °F    
Average Humidity 62    
Maximum Humidity 81    
Minimum Humidity 53    
Precipitation  
Precipitation 0.00 in - - ()
Sea Level Pressure  
Sea Level Pressure 29.33 in    
Wind  
Wind Speed 11 mph (NE)    
Max Wind Speed 16 mph    
Max Gust Speed 24 mph    
Visibility 10 miles    
Events      
Averages and records for this station are not official NWS values.
T = Trace of Precipitation, MM = Missing Value Source: NWS Daily Summary

Daily Weather History Graph

Daily Weather History Graph

Search for Another Location

Airport or City:

Trip Planner

Search our weather history database for the weather conditions in past years. The results will help you decide how hot, cold, wet, or windy it might be!

Date:

Astronomy

Oct. 21, 2011 Rise Set
Actual Time 8:59 AM AKDT 6:36 PM AKDT
Civil Twilight 8:16 AM AKDT 7:20 PM AKDT
Nautical Twilight 7:26 AM AKDT 8:09 PM AKDT
Astronomical Twilight 6:37 AM AKDT 8:57 PM AKDT
Moon 1:29 AM AKDT (10/21) 4:44 PM AKDT (10/21)
Length of Visible Light 11h 04m
Length of Day
9h 36m
Waning Crescent, 32% of the Moon is Illuminated
Oct 21
Waning Crescent
Oct 26
New
Nov 2
First Quarter
Nov 10
Full
Nov 18
Last Quarter

Hourly Weather History & Observations

Time (AKDT) Temp. Windchill Dew Point Humidity Pressure Visibility Wind Dir Wind Speed Gust Speed Precip Events Conditions
12:16 AM 39.2 °F 32.5 °F 28.4 °F 65% 29.43 in 10.0 mi NE 10.4 mph 19.6 mph N/A   Overcast
12:36 AM 39.2 °F 31.6 °F 26.6 °F 61% 29.42 in 10.0 mi NE 12.7 mph 20.7 mph N/A   Overcast
12:56 AM 39.2 °F 31.2 °F 26.6 °F 61% 29.42 in 10.0 mi NE 13.8 mph 21.9 mph N/A   Overcast
1:16 AM 39.2 °F 31.6 °F 26.6 °F 61% 29.42 in 10.0 mi NE 12.7 mph 18.4 mph N/A   Overcast
1:36 AM 37.4 °F 31.4 °F 26.6 °F 65% 29.41 in 10.0 mi NE 8.1 mph 19.6 mph N/A   Overcast
1:56 AM 37.4 °F 28.9 °F 26.6 °F 65% 29.42 in 10.0 mi NNE 13.8 mph 19.6 mph N/A   Overcast
2:16 AM 37.4 °F 30.8 °F 26.6 °F 65% 29.41 in 10.0 mi NNE 9.2 mph 16.1 mph N/A   Overcast
2:36 AM 39.2 °F 32.0 °F 26.6 °F 61% 29.41 in 10.0 mi NNE 11.5 mph 17.3 mph N/A   Overcast
2:56 AM 37.4 °F 30.8 °F 26.6 °F 65% 29.40 in 10.0 mi North 9.2 mph - N/A   Scattered Clouds
3:16 AM 39.2 °F 33.6 °F 26.6 °F 61% 29.40 in 10.0 mi NNE 8.1 mph 16.1 mph N/A   Scattered Clouds
3:36 AM 37.4 °F 30.8 °F 26.6 °F 65% 29.39 in 10.0 mi NNE 9.2 mph 18.4 mph N/A   Overcast
3:56 AM 37.4 °F 31.4 °F 26.6 °F 65% 29.39 in 10.0 mi NNE 8.1 mph - N/A   Overcast
4:16 AM 37.4 °F 30.8 °F 26.6 °F 65% 29.38 in 10.0 mi NNE 9.2 mph - N/A   Overcast
4:36 AM 37.4 °F 30.8 °F 26.6 °F 65% 29.38 in 10.0 mi NE 9.2 mph 17.3 mph N/A   Overcast
4:56 AM 37.4 °F 32.1 °F 26.6 °F 65% 29.37 in 10.0 mi NE 6.9 mph 20.7 mph N/A   Scattered Clouds
5:16 AM 37.4 °F 30.8 °F 26.6 °F 65% 29.36 in 10.0 mi NNE 9.2 mph 16.1 mph N/A   Partly Cloudy
5:36 AM 37.4 °F 31.4 °F 26.6 °F 65% 29.35 in 10.0 mi NNE 8.1 mph - N/A   Partly Cloudy
5:56 AM 37.4 °F 29.3 °F 26.6 °F 65% 29.34 in 10.0 mi NE 12.7 mph 19.6 mph N/A   Mostly Cloudy
6:16 AM 39.2 °F 30.5 °F 26.6 °F 61% 29.34 in 10.0 mi NE 16.1 mph 24.2 mph N/A   Overcast
6:36 AM 39.2 °F 30.5 °F 26.6 °F 61% 29.34 in 10.0 mi NE 16.1 mph 24.2 mph N/A   Overcast
6:56 AM 39.2 °F 30.8 °F 26.6 °F 61% 29.33 in 10.0 mi NE 15.0 mph 20.7 mph N/A   Mostly Cloudy
7:16 AM 37.4 °F 29.3 °F 26.6 °F 65% 29.33 in 10.0 mi NNE 12.7 mph 20.7 mph N/A   Overcast
7:36 AM 37.4 °F 30.3 °F 26.6 °F 65% 29.33 in 10.0 mi NNE 10.4 mph 20.7 mph N/A   Overcast
7:56 AM 37.4 °F 30.3 °F 26.6 °F 65% 29.33 in 10.0 mi NE 10.4 mph 17.3 mph N/A   Overcast
8:16 AM 37.4 °F 31.4 °F 26.6 °F 65% 29.32 in 10.0 mi NNE 8.1 mph 17.3 mph N/A   Overcast
8:36 AM 37.4 °F 30.3 °F 26.6 °F 65% 29.32 in 10.0 mi NE 10.4 mph 17.3 mph N/A   Overcast
8:56 AM 39.2 °F 32.5 °F 26.6 °F 61% 29.32 in 10.0 mi NE 10.4 mph 16.1 mph N/A   Overcast
9:16 AM 39.2 °F 31.6 °F 26.6 °F 61% 29.32 in 10.0 mi NE 12.7 mph 18.4 mph N/A   Overcast
9:36 AM 39.2 °F 32.0 °F 26.6 °F 61% 29.31 in 10.0 mi NE 11.5 mph 19.6 mph N/A   Overcast
9:56 AM 39.2 °F 32.0 °F 26.6 °F 61% 29.31 in 10.0 mi NE 11.5 mph 18.4 mph N/A   Overcast
10:16 AM 39.2 °F 32.5 °F 26.6 °F 61% 29.32 in 10.0 mi NE 10.4 mph 18.4 mph N/A   Overcast
10:36 AM 39.2 °F 32.5 °F 26.6 °F 61% 29.31 in 10.0 mi NE 10.4 mph 18.4 mph N/A   Overcast
10:56 AM 39.2 °F 32.5 °F 26.6 °F 61% 29.31 in 10.0 mi ENE 10.4 mph - N/A   Overcast
11:16 AM 39.2 °F 33.0 °F 26.6 °F 61% 29.31 in 10.0 mi NNE 9.2 mph - N/A   Mostly Cloudy
11:36 AM 39.2 °F 33.6 °F 26.6 °F 61% 29.30 in 10.0 mi NE 8.1 mph - N/A   Overcast
11:56 AM 41.0 °F 35.2 °F 26.6 °F 57% 29.30 in 10.0 mi NE 9.2 mph - N/A   Overcast
12:16 PM 41.0 °F 33.9 °F 26.6 °F 57% 29.30 in 10.0 mi NE 12.7 mph 17.3 mph N/A   Overcast
12:36 PM 41.0 °F 34.7 °F 26.6 °F 57% 29.30 in 10.0 mi NE 10.4 mph 19.6 mph N/A   Overcast
12:56 PM 42.8 °F 35.4 °F 28.4 °F 57% 29.30 in 10.0 mi NE 15.0 mph 20.7 mph N/A   Overcast
1:16 PM 42.8 °F 35.4 °F 28.4 °F 57% 29.29 in 10.0 mi NE 15.0 mph 20.7 mph N/A   Overcast
1:36 PM 42.8 °F 36.6 °F 28.4 °F 57% 29.29 in 10.0 mi NE 11.5 mph 17.3 mph N/A   Overcast
1:56 PM 42.8 °F 37.0 °F 28.4 °F 57% 29.28 in 10.0 mi NE 10.4 mph 17.3 mph N/A   Overcast
2:16 PM 42.8 °F 37.5 °F 28.4 °F 57% 29.28 in 10.0 mi NE 9.2 mph - N/A   Overcast
2:36 PM 42.8 °F 37.5 °F 28.4 °F 57% 29.28 in 10.0 mi NE 9.2 mph - N/A   Overcast
3:16 PM 44.6 °F 38.8 °F 28.4 °F 53% 29.27 in 10.0 mi NE 11.5 mph 17.3 mph N/A   Overcast
3:36 PM 44.6 °F 38.1 °F 28.4 °F 53% 29.27 in 10.0 mi NE 13.8 mph 19.6 mph N/A   Overcast
3:56 PM 44.6 °F 38.8 °F 28.4 °F 53% 29.27 in 10.0 mi NE 11.5 mph - N/A   Overcast
4:16 PM 44.6 °F 39.2 °F 28.4 °F 53% 29.27 in 10.0 mi NE 10.4 mph - N/A   Overcast
4:36 PM 44.6 °F 39.2 °F 30.2 °F 57% 29.27 in 10.0 mi NE 10.4 mph - N/A   Overcast
4:56 PM 44.6 °F 39.2 °F 30.2 °F 57% 29.27 in 10.0 mi ENE 10.4 mph - N/A   Overcast
5:16 PM 42.8 °F 38.0 °F 30.2 °F 61% 29.27 in 10.0 mi ENE 8.1 mph - N/A   Overcast
5:36 PM 42.8 °F 39.3 °F 30.2 °F 61% 29.27 in 10.0 mi ENE 5.8 mph - N/A   Overcast
5:56 PM 42.8 °F 38.0 °F 30.2 °F 61% 29.27 in 10.0 mi ENE 8.1 mph - N/A   Overcast
6:16 PM 42.8 °F 41.1 °F 30.2 °F 61% 29.27 in 10.0 mi North 3.5 mph - N/A   Overcast
6:36 PM 41.0 °F 39.0 °F 30.2 °F 65% 29.28 in 10.0 mi NE 3.5 mph - N/A   Overcast
6:56 PM 39.2 °F - 32.0 °F 75% 29.28 in 10.0 mi Calm Calm - N/A   Overcast
7:16 PM 39.2 °F 37.0 °F 33.8 °F 81% 29.29 in 10.0 mi East 3.5 mph - N/A   Overcast
7:36 PM 39.2 °F 35.9 °F 33.8 °F 81% 29.29 in 10.0 mi East 4.6 mph - N/A   Overcast
7:56 PM 39.2 °F 37.0 °F 33.8 °F 81% 29.30 in 10.0 mi ENE 3.5 mph - N/A   Overcast
8:16 PM 39.2 °F 35.0 °F 33.8 °F 81% 29.30 in 10.0 mi ENE 5.8 mph - N/A   Overcast
8:36 PM 39.2 °F 35.0 °F 32.0 °F 75% 29.30 in 10.0 mi ENE 5.8 mph - N/A   Overcast
8:56 PM 39.2 °F 35.0 °F 30.2 °F 70% 29.30 in 10.0 mi ENE 5.8 mph - N/A   Overcast
9:16 PM 39.2 °F 37.0 °F 30.2 °F 70% 29.31 in 10.0 mi ESE 3.5 mph - N/A   Overcast
9:36 PM 37.4 °F 33.8 °F 32.0 °F 81% 29.31 in 10.0 mi East 4.6 mph - N/A   Overcast
9:56 PM 39.2 °F 35.0 °F 32.0 °F 75% 29.32 in 10.0 mi NE 5.8 mph - N/A   Overcast
10:16 PM 39.2 °F 35.0 °F 30.2 °F 70% 29.32 in 10.0 mi NE 5.8 mph - N/A   Overcast
10:36 PM 39.2 °F 35.0 °F 30.2 °F 70% 29.32 in 10.0 mi ENE 5.8 mph - N/A   Overcast
10:56 PM 39.2 °F - 30.2 °F 70% 29.32 in 10.0 mi Calm Calm - N/A   Overcast
11:16 PM 37.4 °F - 32.0 °F 81% 29.33 in 10.0 mi Calm Calm - N/A   Overcast
11:36 PM 37.4 °F - 30.2 °F 75% 29.33 in 10.0 mi Calm Calm - N/A   Overcast
11:56 PM 37.4 °F - 32.0 °F 81% 29.33 in 10.0 mi Calm Calm - N/A   Overcast